Leeuwarden, Netherlands

4:07 AM CEST on April 25, 2018 (GMT +0200)
Leeuwarden Air Base

Weather History for EHLW - September, 2013

Change the Weather History Date:

Thursday, September 12, 2013

  Actual Average Record
Temperature  
Mean Temperature 58 °F -  
Max Temperature 66 °F 60 °F 82 °F (1999)
Min Temperature 51 °F 48 °F 47 °F (2012)
Degree Days  
Heating Degree Days 6    
Growing Degree Days 8 (Base 50)    
Moisture  
Dew Point 54 °F    
Average Humidity 86    
Maximum Humidity 100    
Minimum Humidity 50    
Precipitation  
Precipitation 0.00 in - - ()
Sea Level Pressure  
Sea Level Pressure 29.99 in    
Wind  
Wind Speed 4 mph ()    
Max Wind Speed 8 mph    
Max Gust Speed -    
Visibility 5.8 miles    
Events Rain    
Averages and records for this station are not official NWS values.
T = Trace of Precipitation, MM = Missing Value Source: Averaged Metar Reports

Daily Weather History Graph

Daily Weather History Graph

Search for Another Location

Airport or City:

Astronomy

Sep. 12, 2013 Rise Set
Actual Time 7:05 AM CEST 7:59 PM CEST
Civil Twilight 6:30 AM CEST 8:34 PM CEST
Nautical Twilight 5:47 AM CEST 9:17 PM CEST
Astronomical Twilight 5:01 AM CEST 10:02 PM CEST
Moon 3:13 PM CEST (9/12) 11:43 PM CEST (9/12)
Length of Visible Light 14h 04m
Length of Day
12h 54m
Waxing Crescent, 47% of the Moon is Illuminated
Sep 12
Waxing Crescent
Sep 12
First Quarter
Sep 19
Full
Sep 27
Last Quarter
Oct 5
New

Hourly Weather History & Observations

Time (CEST) Temp. Dew Point Humidity Pressure Visibility Wind Dir Wind Speed Gust Speed Precip Events Conditions
12:14 AM 57.2 °F 55.4 °F 94% 29.95 in 6.2 mi WNW 3.5 mph - N/A   Overcast
12:25 AM 57.2 °F 55.4 °F 94% 29.95 in 6.2 mi WNW 3.5 mph - N/A   Mostly Cloudy
12:33 AM 57.2 °F 55.4 °F 94% 29.95 in 4.3 mi NNW 3.5 mph - N/A Rain Heavy Drizzle
12:35 AM 57.2 °F 55.4 °F 94% 29.95 in 5.6 mi North 3.5 mph - N/A Rain Light Rain Showers
12:48 AM 57.2 °F 55.4 °F 94% 29.95 in 4.3 mi NNE 4.6 mph - N/A Rain Light Rain Showers
12:55 AM 57.2 °F 55.4 °F 94% 29.95 in 3.7 mi North 4.6 mph - N/A Rain Rain
12:58 AM 57.2 °F 55.4 °F 94% 29.95 in 6.2 mi North 4.6 mph - N/A Rain Rain Showers
1:00 AM 57.2 °F 55.4 °F 94% 29.95 in 6.2 mi North 3.5 mph - N/A Rain Light Rain
1:12 AM 57.2 °F 55.4 °F 94% 29.95 in 6.2 mi NNW 4.6 mph - N/A Rain Light Rain
1:25 AM 57.2 °F 55.4 °F 94% 29.95 in 6.2 mi North 4.6 mph - N/A Rain Light Rain
1:28 AM 57.2 °F 55.4 °F 94% 29.95 in 6.2 mi NNW 4.6 mph - N/A Rain Rain Showers
1:32 AM 57.2 °F 55.4 °F 94% 29.95 in 6.2 mi North 5.8 mph - N/A Rain Rain Showers
1:48 AM 57.2 °F 55.4 °F 94% 29.95 in 6.2 mi NNW 5.8 mph - N/A   Mostly Cloudy
1:55 AM 57.2 °F 55.4 °F 94% 29.95 in 6.2 mi NW 5.8 mph - N/A   Mostly Cloudy
1:56 AM 57.2 °F 55.4 °F 94% 29.95 in 6.2 mi NW 5.8 mph - N/A   Mostly Cloudy
2:00 AM 58 °F 55 °F 88% 29.96 in 22 mi NNW 6.7 mph - - Rain Rain
2:06 AM 57.2 °F 55.4 °F 94% 29.95 in 6.2 mi NNW 5.8 mph - N/A   Overcast
2:25 AM 57.2 °F 55.4 °F 94% 29.95 in 6.2 mi NNW 4.6 mph - N/A   Mostly Cloudy
2:30 AM 57.2 °F 55.4 °F 94% 29.95 in 6.2 mi NNW 4.6 mph - N/A   Overcast
2:31 AM 57.2 °F 55.4 °F 94% 29.95 in 6.2 mi NNW 5.8 mph - N/A   Overcast
2:55 AM 57.2 °F 55.4 °F 94% 29.95 in 6.2 mi NNW 5.8 mph - N/A Rain Light Rain
3:00 AM 57.2 °F 55.4 °F 94% 29.95 in 6.2 mi NNW 6.9 mph - N/A   Drizzle
3:12 AM 57.2 °F 55.4 °F 94% 29.95 in 6.2 mi NW 5.8 mph - N/A Rain Light Rain
3:18 AM 57.2 °F 55.4 °F 94% 29.95 in 6.2 mi NW 5.8 mph - N/A   Mostly Cloudy
3:25 AM 57.2 °F 55.4 °F 94% 29.95 in 6.2 mi WNW 5.8 mph - N/A   Mostly Cloudy
3:40 AM 57.2 °F 55.4 °F 94% 29.95 in 6.2 mi NW 5.8 mph - N/A   Mostly Cloudy
3:50 AM 57.2 °F 55.4 °F 94% 29.95 in 6.2 mi NNW 6.9 mph - N/A   Overcast
3:55 AM 57.2 °F 55.4 °F 94% 29.95 in 6.2 mi NNW 6.9 mph - N/A   Overcast
4:00 AM 57.2 °F 55.4 °F 94% 29.95 in 6.2 mi NNW 6.9 mph - N/A   Overcast
4:25 AM 57.2 °F 55.4 °F 94% 29.95 in 6.2 mi NNW 5.8 mph - N/A   Mostly Cloudy
4:55 AM 57.2 °F 53.6 °F 88% 29.95 in 6.2 mi WNW 4.6 mph - N/A   Overcast
5:25 AM 55.4 °F 53.6 °F 94% 29.95 in 6.2 mi NNW 4.6 mph - N/A   Overcast
5:55 AM 55.4 °F 53.6 °F 94% 29.95 in 6.2 mi NNW 2.3 mph - N/A   Overcast
6:04 AM 55.4 °F 53.6 °F 94% 29.95 in 6.2 mi NW 2.3 mph - N/A   Overcast
6:25 AM 55.4 °F 53.6 °F 94% 29.95 in 6.2 mi SSW 1.2 mph - N/A   Overcast
6:55 AM 53.6 °F 53.6 °F 100% 29.95 in 6.2 mi SW 2.3 mph - N/A   Mostly Cloudy
7:25 AM 55.4 °F 53.6 °F 94% 29.95 in 6.2 mi SW 3.5 mph - N/A   Mostly Cloudy
7:55 AM 55.4 °F 55.4 °F 100% 29.95 in 6.2 mi SW 2.3 mph - N/A   Overcast
8:00 AM 56 °F 55 °F 97% 29.97 in 7 mi SW 2.2 mph - -   Partly Cloudy
8:25 AM 57.2 °F 55.4 °F 94% 29.95 in 6.2 mi WSW 2.3 mph - N/A   Mostly Cloudy
8:55 AM 59.0 °F 57.2 °F 94% 29.98 in 6.2 mi WNW 2.3 mph - N/A   Partly Cloudy
9:25 AM 60.8 °F 57.2 °F 88% 29.98 in 6.2 mi NW 5.8 mph - N/A   Unknown
9:55 AM 62.6 °F 53.6 °F 72% 29.98 in 6.2 mi NNW 5.8 mph - N/A   Partly Cloudy
10:25 AM 64.4 °F 55.4 °F 73% 29.98 in 6.2 mi NW 3.5 mph - N/A   Partly Cloudy
10:40 AM 64.4 °F 55.4 °F 73% 29.98 in 6.2 mi North 3.5 mph - N/A   Scattered Clouds
10:50 AM 64.4 °F 55.4 °F 73% 29.98 in 6.2 mi NE 3.5 mph - N/A   Partly Cloudy
10:55 AM 64.4 °F 55.4 °F 73% 29.98 in 6.2 mi NE 4.6 mph - N/A   Partly Cloudy
10:59 AM 64.4 °F 53.6 °F 68% 29.98 in 6.2 mi NE 5.8 mph - N/A   Mostly Cloudy
11:07 AM 64.4 °F 55.4 °F 73% 29.98 in 6.2 mi NE 4.6 mph - N/A   Partly Cloudy
11:25 AM 64.4 °F 53.6 °F 68% 29.98 in 6.2 mi NNE 4.6 mph - N/A   Scattered Clouds
11:55 AM 64.4 °F 53.6 °F 68% 29.98 in 6.2 mi NE 6.9 mph - N/A   Partly Cloudy
12:25 PM 66.2 °F 51.8 °F 60% 30.01 in 6.2 mi NNE 5.8 mph - N/A   Partly Cloudy
12:55 PM 66.2 °F 51.8 °F 60% 30.01 in 6.2 mi ENE 5.8 mph - N/A   Unknown
1:25 PM 66.2 °F 51.8 °F 60% 30.01 in 6.2 mi ENE 5.8 mph - N/A   Unknown
1:55 PM 66.2 °F 51.8 °F 60% 30.01 in 6.2 mi NE 8.1 mph - N/A   Scattered Clouds
2:00 PM 66 °F 52 °F 50% 30.02 in 22 mi NNE 6.7 mph - -   Partly Cloudy
2:25 PM 66.2 °F 50.0 °F 56% 30.01 in 6.2 mi NE 3.5 mph - N/A   Unknown
2:55 PM 66.2 °F 50.0 °F 56% 30.01 in 6.2 mi NNE 5.8 mph - N/A   Partly Cloudy
3:25 PM 66.2 °F 53.6 °F 64% 30.01 in 6.2 mi North 8.1 mph - N/A   Partly Cloudy
3:55 PM 66.2 °F 51.8 °F 60% 30.01 in 6.2 mi NNE 6.9 mph - N/A   Partly Cloudy
4:25 PM 66.2 °F 51.8 °F 60% 30.01 in 6.2 mi NNE 6.9 mph - N/A   Unknown
4:55 PM 64.4 °F 51.8 °F 64% 30.01 in 6.2 mi North 6.9 mph - N/A   Partly Cloudy
5:25 PM 64.4 °F 51.8 °F 64% 30.01 in 6.2 mi North 6.9 mph - N/A   Unknown
5:55 PM 64.4 °F 51.8 °F 64% 30.01 in 6.2 mi North 5.8 mph - N/A   Partly Cloudy
6:25 PM 64.4 °F 53.6 °F 68% 30.01 in 6.2 mi North 5.8 mph - N/A   Unknown
6:55 PM 62.6 °F 53.6 °F 72% 30.01 in 6.2 mi NNE 5.8 mph - N/A   Unknown
7:25 PM 62.6 °F 53.6 °F 72% 30.01 in 6.2 mi North 3.5 mph - N/A   Partly Cloudy
7:29 PM 62.6 °F 53.6 °F 72% 30.01 in 6.2 mi North 3.5 mph - N/A   Scattered Clouds
7:33 PM 60.8 °F 55.4 °F 82% 30.04 in 6.2 mi NNW 4.6 mph - N/A   Partly Cloudy
7:55 PM 59.0 °F 53.6 °F 82% 30.04 in 6.2 mi NNW 5.8 mph - N/A   Unknown
8:00 PM 59 °F 53 °F 76% 30.04 in 25 mi NW 4.5 mph - -   Partly Cloudy
8:25 PM 57.2 °F 53.6 °F 88% 30.04 in 6.2 mi NW 3.5 mph - N/A   Unknown
8:55 PM 57.2 °F 53.6 °F 88% 30.04 in 6.2 mi North 1.2 mph - N/A   Unknown
9:25 PM 55.4 °F 53.6 °F 94% 30.04 in 6.2 mi SW 1.2 mph - N/A   Unknown
9:55 PM 53.6 °F 51.8 °F 94% 30.04 in 6.2 mi SSW 1.2 mph - N/A   Partly Cloudy
10:25 PM 53.6 °F 51.8 °F 94% 30.04 in 6.2 mi SW 1.2 mph - N/A   Unknown
10:38 PM 53.6 °F 53.6 °F 100% 30.04 in 4.3 mi SW 2.3 mph - N/A   Mist
10:42 PM 53.6 °F 53.6 °F 100% 30.04 in 5.0 mi SW 1.2 mph - N/A   Mist
10:55 PM 53.6 °F 51.8 °F 94% 30.04 in 5.0 mi SSW 2.3 mph - N/A   Mist
10:59 PM 53.6 °F 51.8 °F 94% 30.04 in 4.3 mi SW 2.3 mph - N/A   Mist
11:03 PM 53.6 °F 53.6 °F 100% 30.04 in 5.0 mi SW 2.3 mph - N/A   Mist
11:07 PM 53.6 °F 51.8 °F 94% 30.04 in 4.3 mi SSW 2.3 mph - N/A   Mist
11:11 PM 53.6 °F 51.8 °F 94% 30.04 in 5.0 mi SSW 1.2 mph - N/A   Partly Cloudy
11:15 PM 53.6 °F 51.8 °F 94% 30.04 in 4.3 mi SSW 1.2 mph - N/A   Partly Cloudy
11:25 PM 53.6 °F 51.8 °F 94% 30.06 in 2.8 mi SW 2.3 mph - N/A   Partly Cloudy
11:29 PM 53.6 °F 51.8 °F 94% 30.06 in 3.1 mi SW 2.3 mph - N/A   Partly Cloudy
11:36 PM 51.8 °F 51.8 °F 100% 30.06 in 5.0 mi SW 2.3 mph - N/A   Partly Cloudy
11:40 PM 51.8 °F 51.8 °F 100% 30.06 in 4.3 mi SW 2.3 mph - N/A   Mist
11:50 PM 51.8 °F 51.8 °F 100% 30.06 in 5.0 mi SW 2.3 mph - N/A   Mist
11:55 PM 51.8 °F 51.8 °F 100% 30.06 in 4.3 mi SW 2.3 mph - N/A   Mist
11:59 PM 51.8 °F 51.8 °F 100% 30.06 in 5.6 mi WSW 2.3 mph - N/A   Mist